Time,TemperatureF,DewpointF,PressureIn,WindDirection,WindDirectionDegrees,WindSpeedMPH,WindSpeedGustMPH,Humidity,HourlyPrecipIn,Conditions,Clouds,dailyrainin,SoftwareType,DateUTC
2013-03-02 00:00:00,34.7,34.5,30.37,NNE,23,2.5,2.5,99,0.00,,,0.00,WUHU216HW,2013-03-02 06:00:00,
2013-03-02 00:05:00,34.7,34.5,30.37,NNE,23,2.5,2.5,99,0.00,,,0.00,WUHU216HW,2013-03-02 06:05:00,
2013-03-02 01:00:00,36.0,35.7,30.38,NW,315,2.5,2.5,99,0.00,,,0.00,WUHU216HW,2013-03-02 07:00:00,
2013-03-02 01:05:00,36.0,35.7,30.38,NW,315,2.5,2.5,99,0.00,,,0.00,WUHU216HW,2013-03-02 07:05:00,
2013-03-02 02:00:00,38.2,37.9,30.37,North,0,5.1,5.1,99,0.00,,,0.00,WUHU216HW,2013-03-02 08:00:00,
2013-03-02 02:05:00,38.2,37.9,30.37,North,0,5.1,5.1,99,0.00,,,0.00,WUHU216HW,2013-03-02 08:05:00,
2013-03-02 03:00:00,40.7,40.4,30.35,NNW,338,1.8,1.8,99,0.00,,,0.00,WUHU216HW,2013-03-02 09:00:00,
2013-03-02 03:05:00,40.7,40.4,30.35,NNW,338,1.8,1.8,99,0.00,,,0.00,WUHU216HW,2013-03-02 09:05:00,
2013-03-02 04:00:00,43.4,43.1,30.36,NNW,338,2.2,2.2,99,0.00,,,0.00,WUHU216HW,2013-03-02 10:00:00,
2013-03-02 04:05:00,43.4,43.1,30.36,NNW,338,2.2,2.2,99,0.00,,,0.00,WUHU216HW,2013-03-02 10:05:00,
2013-03-02 05:00:00,47.3,47.1,30.37,North,0,5.6,5.6,99,0.00,,,0.00,WUHU216HW,2013-03-02 11:00:00,
2013-03-02 05:05:00,47.3,47.1,30.37,North,0,5.6,5.6,99,0.00,,,0.00,WUHU216HW,2013-03-02 11:05:00,
2013-03-02 06:00:00,53.3,53.0,30.40,NNE,23,2.5,2.5,99,0.00,,,0.00,WUHU216HW,2013-03-02 12:00:00,
2013-03-02 06:05:00,53.3,53.0,30.40,NE,45,4.5,4.9,99,0.00,,,0.00,WUHU216HW,2013-03-02 12:05:00,
2013-03-02 06:10:00,54.4,54.1,30.40,North,0,2.2,4.9,99,0.00,,,0.00,WUHU216HW,2013-03-02 12:10:00,
2013-03-02 06:15:00,54.4,54.1,30.40,NNW,338,5.4,6.3,99,0.00,,,0.00,WUHU216HW,2013-03-02 12:15:00,
2013-03-02 06:20:00,55.4,55.2,30.41,North,0,5.4,6.3,99,0.00,,,0.00,WUHU216HW,2013-03-02 12:20:00,
2013-03-02 06:25:00,55.4,55.2,30.41,North,0,4.9,5.4,99,0.00,,,0.00,WUHU216HW,2013-03-02 12:25:00,
2013-03-02 06:30:00,56.2,55.9,30.41,North,0,3.6,6.0,99,0.00,,,0.00,WUHU216HW,2013-03-02 12:30:00,
2013-03-02 06:35:00,56.9,56.6,30.41,NW,315,6.3,8.9,99,0.00,,,0.00,WUHU216HW,2013-03-02 12:35:00,
2013-03-02 06:40:00,57.2,57.0,30.41,NNW,338,1.3,8.9,99,0.00,,,0.00,WUHU216HW,2013-03-02 12:40:00,
2013-03-02 06:45:00,58.0,57.7,30.41,NNW,338,1.3,6.7,99,0.00,,,0.00,WUHU216HW,2013-03-02 12:45:00,
2013-03-02 06:50:00,58.3,58.1,30.41,NW,315,2.7,5.1,99,0.00,,,0.00,WUHU216HW,2013-03-02 12:50:00,
2013-03-02 06:55:00,59.6,59.3,30.41,North,0,2.5,7.4,99,0.00,,,0.00,WUHU216HW,2013-03-02 12:55:00,
2013-03-02 07:00:00,61.2,60.9,30.41,NNW,338,5.4,7.4,99,0.00,,,0.00,WUHU216HW,2013-03-02 13:00:00,
2013-03-02 07:05:00,61.4,61.1,30.41,North,0,3.8,5.4,99,0.00,,,0.00,WUHU216HW,2013-03-02 13:05:00,
2013-03-02 07:10:00,62.1,61.8,30.42,NNW,338,3.1,4.9,99,0.00,,,0.00,WUHU216HW,2013-03-02 13:10:00,
2013-03-02 07:15:00,62.5,62.2,30.42,NNW,338,2.0,4.9,99,0.00,,,0.00,WUHU216HW,2013-03-02 13:15:00,
2013-03-02 07:20:00,63.7,63.5,30.42,ENE,68,5.6,5.6,99,0.00,,,0.00,WUHU216HW,2013-03-02 13:20:00,
2013-03-02 07:25:00,64.3,64.0,30.42,NW,315,1.3,5.6,99,0.00,,,0.00,WUHU216HW,2013-03-02 13:25:00,
2013-03-02 07:30:00,64.8,64.5,30.42,NNW,338,2.5,3.4,99,0.00,,,0.00,WUHU216HW,2013-03-02 13:30:00,
2013-03-02 07:35:00,65.3,65.1,30.42,NW,315,2.9,3.6,99,0.00,,,0.00,WUHU216HW,2013-03-02 13:35:00,
2013-03-02 07:40:00,65.5,65.3,30.42,North,0,5.8,5.8,99,0.00,,,0.00,WUHU216HW,2013-03-02 13:40:00,
2013-03-02 07:45:00,65.9,65.6,30.43,NNW,338,4.3,5.8,99,0.00,,,0.00,WUHU216HW,2013-03-02 13:45:00,
2013-03-02 07:50:00,66.2,66.0,30.43,NW,315,3.4,6.3,99,0.00,,,0.00,WUHU216HW,2013-03-02 13:50:00,
2013-03-02 07:55:00,67.0,66.7,30.43,NNW,338,2.9,6.3,99,0.00,,,0.00,WUHU216HW,2013-03-02 13:55:00,
2013-03-02 08:00:00,67.3,67.1,30.43,NNW,338,2.7,5.8,99,0.00,,,0.00,WUHU216HW,2013-03-02 14:00:00,
2013-03-02 08:05:00,67.7,67.4,30.43,NE,45,2.0,5.8,99,0.00,,,0.00,WUHU216HW,2013-03-02 14:05:00,
2013-03-02 08:10:00,68.6,68.3,30.43,North,0,3.4,5.1,99,0.00,,,0.00,WUHU216HW,2013-03-02 14:10:00,
2013-03-02 08:15:00,69.1,68.9,30.43,North,0,9.2,9.2,99,0.00,,,0.00,WUHU216HW,2013-03-02 14:15:00,
2013-03-02 08:20:00,69.1,68.9,30.43,North,0,2.9,9.2,99,0.00,,,0.00,WUHU216HW,2013-03-02 14:20:00,
2013-03-02 08:25:00,69.8,69.6,30.43,North,0,2.7,5.4,99,0.00,,,0.00,WUHU216HW,2013-03-02 14:25:00,
2013-03-02 08:30:00,70.2,69.9,30.43,NNE,23,2.9,6.3,99,0.00,,,0.00,WUHU216HW,2013-03-02 14:30:00,
2013-03-02 08:35:00,70.6,70.3,30.43,NNE,23,1.8,6.3,99,0.00,,,0.00,WUHU216HW,2013-03-02 14:35:00,
2013-03-02 08:40:00,71.6,71.4,30.42,NNW,338,4.3,4.3,99,0.00,,,0.00,WUHU216HW,2013-03-02 14:40:00,
2013-03-02 08:45:00,70.0,69.8,30.42,North,0,4.9,4.9,99,0.00,,,0.00,WUHU216HW,2013-03-02 14:45:00,
2013-03-02 08:50:00,69.8,69.6,30.42,NNW,338,4.0,4.9,99,0.00,,,0.00,WUHU216HW,2013-03-02 14:50:00,
2013-03-02 08:55:00,70.2,69.9,30.42,North,0,4.0,4.9,99,0.00,,,0.00,WUHU216HW,2013-03-02 14:55:00,
2013-03-02 09:00:00,69.8,69.6,30.42,NNW,338,2.2,4.9,99,0.00,,,0.00,WUHU216HW,2013-03-02 15:00:00,
2013-03-02 09:05:00,70.4,70.1,30.42,NNW,338,1.8,4.0,99,0.00,,,0.00,WUHU216HW,2013-03-02 15:05:00,
2013-03-02 09:10:00,69.8,69.6,30.41,North,0,1.8,2.5,99,0.00,,,0.00,WUHU216HW,2013-03-02 15:10:00,
2013-03-02 09:15:00,69.1,68.9,30.42,NE,45,0.7,4.7,99,0.00,,,0.00,WUHU216HW,2013-03-02 15:15:00,
2013-03-02 09:20:00,68.8,68.5,30.41,North,0,2.5,4.7,99,0.00,,,0.00,WUHU216HW,2013-03-02 15:20:00,
2013-03-02 09:25:00,67.1,66.9,30.41,NNE,23,1.8,3.8,99,0.00,,,0.00,WUHU216HW,2013-03-02 15:25:00,
2013-03-02 09:30:00,68.0,67.8,30.42,North,0,5.4,5.4,99,0.00,,,0.00,WUHU216HW,2013-03-02 15:30:00,
2013-03-02 09:35:00,67.0,66.7,30.41,North,0,2.7,5.4,99,0.00,,,0.00,WUHU216HW,2013-03-02 15:35:00,
2013-03-02 09:40:00,67.3,67.1,30.41,North,0,2.0,3.4,99,0.00,,,0.00,WUHU216HW,2013-03-02 15:40:00,
2013-03-02 09:45:00,66.8,66.5,30.42,NNW,338,3.1,4.7,99,0.00,,,0.00,WUHU216HW,2013-03-02 15:45:00,
2013-03-02 09:50:00,66.8,66.5,30.42,North,0,1.1,4.7,99,0.00,,,0.00,WUHU216HW,2013-03-02 15:50:00,
2013-03-02 09:55:00,66.4,66.2,30.41,NNW,338,1.6,4.0,99,0.00,,,0.00,WUHU216HW,2013-03-02 15:55:00,
2013-03-02 10:00:00,64.8,64.5,30.41,NNW,338,2.9,2.9,99,0.00,,,0.00,WUHU216HW,2013-03-02 16:00:00,
2013-03-02 10:05:00,65.3,65.1,30.41,West,270,1.6,3.4,99,0.00,,,0.00,WUHU216HW,2013-03-02 16:05:00,
2013-03-02 10:10:00,64.3,64.0,30.42,WNW,293,3.1,3.8,99,0.00,,,0.00,WUHU216HW,2013-03-02 16:10:00,
2013-03-02 10:15:00,65.2,64.9,30.42,North,0,2.5,3.8,99,0.00,,,0.00,WUHU216HW,2013-03-02 16:15:00,
2013-03-02 10:20:00,64.1,63.8,30.42,NNW,338,1.8,3.4,99,0.00,,,0.00,WUHU216HW,2013-03-02 16:20:00,
2013-03-02 10:25:00,63.7,63.5,30.42,North,0,2.9,3.8,99,0.00,,,0.00,WUHU216HW,2013-03-02 16:25:00,
2013-03-02 10:30:00,63.5,63.3,30.42,NNW,338,2.9,3.8,99,0.00,,,0.00,WUHU216HW,2013-03-02 16:30:00,
2013-03-02 10:35:00,63.5,63.3,30.42,NNW,338,1.8,3.6,99,0.00,,,0.00,WUHU216HW,2013-03-02 16:35:00,
2013-03-02 10:40:00,62.3,62.0,30.42,NNW,338,3.8,5.4,99,0.00,,,0.00,WUHU216HW,2013-03-02 16:40:00,
2013-03-02 10:45:00,62.1,61.8,30.42,North,0,0.2,5.4,99,0.00,,,0.00,WUHU216HW,2013-03-02 16:45:00,
2013-03-02 10:50:00,62.3,62.0,30.42,West,270,1.3,5.4,99,0.00,,,0.00,WUHU216HW,2013-03-02 16:50:00,
2013-03-02 10:55:00,61.9,61.7,30.42,NNW,338,2.2,2.2,99,0.00,,,0.00,WUHU216HW,2013-03-02 16:55:00,
2013-03-02 11:00:00,61.0,60.8,30.42,NNE,23,1.8,4.3,99,0.00,,,0.00,WUHU216HW,2013-03-02 17:00:00,
2013-03-02 11:05:00,60.8,60.6,30.42,SW,225,3.6,4.9,99,0.00,,,0.00,WUHU216HW,2013-03-02 17:05:00,
2013-03-02 11:10:00,60.5,60.2,30.42,NNW,338,0.7,4.9,99,0.00,,,0.00,WUHU216HW,2013-03-02 17:10:00,
2013-03-02 11:15:00,60.1,53.6,30.42,North,0,2.5,4.3,79,0.00,,,0.00,WUHU216HW,2013-03-02 17:15:00,
2013-03-02 11:20:00,59.8,58.0,30.41,West,270,2.0,2.7,94,0.00,,,0.00,WUHU216HW,2013-03-02 17:20:00,
2013-03-02 11:25:00,59.6,57.3,30.41,West,270,2.2,2.7,92,0.00,,,0.00,WUHU216HW,2013-03-02 17:25:00,
2013-03-02 11:30:00,59.0,2.5,30.41,NW,315,1.1,4.7,1,0.00,,,0.00,WUHU216HW,2013-03-02 17:30:00,
2013-03-02 11:35:00,58.5,2.1,30.41,NNW,338,0.0,5.4,1,0.00,,,0.00,WUHU216HW,2013-03-02 17:35:00,
2013-03-02 11:40:00,58.0,1.6,30.41,WNW,293,2.0,5.4,1,0.00,,,0.00,WUHU216HW,2013-03-02 17:40:00,
2013-03-02 11:45:00,58.1,1.8,30.41,WSW,248,4.7,6.3,1,0.00,,,0.00,WUHU216HW,2013-03-02 17:45:00,
2013-03-02 11:50:00,57.4,1.3,30.40,North,0,1.8,6.3,1,0.00,,,0.00,WUHU216HW,2013-03-02 17:50:00,
2013-03-02 11:55:00,57.4,1.3,30.40,West,270,3.4,3.4,1,0.00,,,0.00,WUHU216HW,2013-03-02 17:55:00,
2013-03-02 12:00:00,57.2,1.1,30.40,SSE,158,0.2,3.4,1,0.00,,,0.00,WUHU216HW,2013-03-02 18:00:00,
2013-03-02 12:05:00,56.7,0.7,30.40,West,270,2.7,4.0,1,0.00,,,0.00,WUHU216HW,2013-03-02 18:05:00,
2013-03-02 12:10:00,56.2,0.4,30.40,NE,45,2.5,4.0,1,0.00,,,0.00,WUHU216HW,2013-03-02 18:10:00,
2013-03-02 12:15:00,56.0,0.2,30.40,North,0,3.1,6.0,1,0.00,,,0.00,WUHU216HW,2013-03-02 18:15:00,
2013-03-02 12:20:00,55.8,0.1,30.40,North,0,0.9,6.0,1,0.00,,,0.00,WUHU216HW,2013-03-02 18:20:00,
2013-03-02 12:25:00,55.4,-0.2,30.40,West,270,8.3,8.3,1,0.00,,,0.00,WUHU216HW,2013-03-02 18:25:00,
2013-03-02 12:30:00,54.9,-0.6,30.40,WNW,293,1.8,8.3,1,0.00,,,0.00,WUHU216HW,2013-03-02 18:30:00,
2013-03-02 12:35:00,54.9,-0.6,30.39,WSW,248,3.1,4.0,1,0.00,,,0.00,WUHU216HW,2013-03-02 18:35:00,
2013-03-02 12:40:00,54.4,-1.1,30.39,NNW,338,3.1,5.8,1,0.00,,,0.00,WUHU216HW,2013-03-02 18:40:00,
2013-03-02 12:45:00,54.0,-1.3,30.39,West,270,2.5,5.8,1,0.00,,,0.00,WUHU216HW,2013-03-02 18:45:00,
2013-03-02 12:50:00,53.8,-1.4,30.38,NNW,338,2.2,5.4,1,0.00,,,0.00,WUHU216HW,2013-03-02 18:50:00,
2013-03-02 12:55:00,53.6,-1.6,30.38,North,0,2.7,3.6,1,0.00,,,0.00,WUHU216HW,2013-03-02 18:55:00,
2013-03-02 13:00:00,53.1,-2.1,30.38,WSW,248,1.1,3.6,1,0.00,,,0.00,WUHU216HW,2013-03-02 19:00:00,
2013-03-02 13:05:00,53.5,-1.8,30.38,NW,315,2.7,4.9,1,0.00,,,0.00,WUHU216HW,2013-03-02 19:05:00,
2013-03-02 13:10:00,53.1,-2.1,30.37,North,0,2.2,4.9,1,0.00,,,0.00,WUHU216HW,2013-03-02 19:10:00,
2013-03-02 13:15:00,52.6,-2.5,30.37,NNW,338,1.1,5.4,1,0.00,,,0.00,WUHU216HW,2013-03-02 19:15:00,
2013-03-02 13:20:00,52.6,-2.5,30.37,SSW,203,0.9,5.6,1,0.00,,,0.00,WUHU216HW,2013-03-02 19:20:00,
2013-03-02 13:25:00,52.2,-2.8,30.37,NNW,338,3.6,5.6,1,0.01,,,0.01,WUHU216HW,2013-03-02 19:25:00,
2013-03-02 13:30:00,52.4,-2.6,30.37,NNW,338,1.1,5.1,1,0.01,,,0.01,WUHU216HW,2013-03-02 19:30:00,
2013-03-02 13:35:00,51.8,-3.1,30.37,WSW,248,2.9,6.5,1,0.01,,,0.01,WUHU216HW,2013-03-02 19:35:00,
2013-03-02 13:40:00,51.8,-3.1,30.36,SSW,203,2.0,6.5,1,0.01,,,0.01,WUHU216HW,2013-03-02 19:40:00,
2013-03-02 13:45:00,51.7,-3.2,30.36,North,0,3.4,5.1,1,0.01,,,0.01,WUHU216HW,2013-03-02 19:45:00,
2013-03-02 13:50:00,51.5,-3.3,30.36,NW,315,1.1,5.1,1,0.01,,,0.01,WUHU216HW,2013-03-02 19:50:00,
2013-03-02 13:55:00,51.1,-3.6,30.36,SSW,203,1.1,7.4,1,0.02,,,0.02,WUHU216HW,2013-03-02 19:55:00,
2013-03-02 14:00:00,51.1,-3.6,30.36,West,270,2.2,7.4,1,0.02,,,0.02,WUHU216HW,2013-03-02 20:00:00,
2013-03-02 14:05:00,50.9,-3.8,30.36,ESE,113,1.1,5.4,1,0.02,,,0.02,WUHU216HW,2013-03-02 20:05:00,
2013-03-02 14:10:00,50.6,-4.0,30.35,NNE,23,3.4,5.4,1,0.03,,,0.03,WUHU216HW,2013-03-02 20:10:00,
2013-03-02 14:15:00,50.6,-4.0,30.35,WNW,293,0.9,6.9,1,0.03,,,0.03,WUHU216HW,2013-03-02 20:15:00,
2013-03-02 14:20:00,50.4,-4.2,30.35,SW,225,3.6,7.2,1,0.03,,,0.03,WUHU216HW,2013-03-02 20:20:00,
2013-03-02 14:25:00,50.6,-4.0,30.35,West,270,2.0,7.2,1,0.02,,,0.03,WUHU216HW,2013-03-02 20:25:00,
2013-03-02 14:30:00,50.4,-4.2,30.35,SW,225,2.2,4.0,1,0.02,,,0.03,WUHU216HW,2013-03-02 20:30:00,
2013-03-02 14:35:00,50.0,-4.5,30.35,West,270,6.0,6.0,1,0.02,,,0.03,WUHU216HW,2013-03-02 20:35:00,
2013-03-02 14:40:00,49.9,-4.6,30.35,WSW,248,4.5,6.0,1,0.02,,,0.03,WUHU216HW,2013-03-02 20:40:00,
2013-03-02 14:45:00,50.0,-4.5,30.35,WSW,248,2.2,5.4,1,0.02,,,0.03,WUHU216HW,2013-03-02 20:45:00,
2013-03-02 14:50:00,49.5,-4.8,30.35,West,270,5.4,6.9,1,0.02,,,0.03,WUHU216HW,2013-03-02 20:50:00,
2013-03-02 14:55:00,49.5,-4.8,30.35,WSW,248,1.3,6.9,1,0.01,,,0.03,WUHU216HW,2013-03-02 20:55:00,
2013-03-02 15:00:00,49.7,-4.8,30.35,WNW,293,0.2,3.4,1,0.01,,,0.03,WUHU216HW,2013-03-02 21:00:00,
2013-03-02 15:05:00,49.5,-4.8,30.35,NW,315,1.8,3.4,1,0.01,,,0.03,WUHU216HW,2013-03-02 21:05:00,
2013-03-02 15:10:00,49.3,-5.0,30.35,West,270,0.7,2.5,1,0.00,,,0.03,WUHU216HW,2013-03-02 21:10:00,
2013-03-02 15:15:00,49.3,-5.0,30.35,WNW,293,4.0,5.1,1,0.00,,,0.03,WUHU216HW,2013-03-02 21:15:00,
2013-03-02 15:20:00,51.3,-3.5,30.35,WSW,248,1.1,5.1,1,0.00,,,0.03,WUHU216HW,2013-03-02 21:20:00,
2013-03-02 15:25:00,50.9,-3.8,30.35,SW,225,0.4,3.1,1,0.00,,,0.03,WUHU216HW,2013-03-02 21:25:00,
2013-03-02 15:30:00,50.8,-4.0,30.34,NW,315,2.5,4.7,1,0.00,,,0.03,WUHU216HW,2013-03-02 21:30:00,
2013-03-02 15:35:00,50.8,-4.0,30.34,West,270,2.0,4.7,1,0.00,,,0.03,WUHU216HW,2013-03-02 21:35:00,
2013-03-02 15:40:00,50.8,-4.0,30.34,West,270,7.6,7.6,1,0.00,,,0.03,WUHU216HW,2013-03-02 21:40:00,
2013-03-02 15:45:00,50.6,-4.0,30.34,SW,225,1.6,7.6,1,0.00,,,0.03,WUHU216HW,2013-03-02 21:45:00,
2013-03-02 15:50:00,50.6,-4.0,30.34,West,270,2.5,5.6,1,0.00,,,0.03,WUHU216HW,2013-03-02 21:50:00,
2013-03-02 15:55:00,50.4,-4.2,30.34,West,270,2.2,6.9,1,0.00,,,0.03,WUHU216HW,2013-03-02 21:55:00,
2013-03-02 16:00:00,50.6,-4.0,30.34,WSW,248,2.0,6.9,1,0.00,,,0.03,WUHU216HW,2013-03-02 22:00:00,
2013-03-02 16:05:00,50.6,-4.0,30.33,SW,225,1.1,3.8,1,0.00,,,0.03,WUHU216HW,2013-03-02 22:05:00,
2013-03-02 16:10:00,50.8,-4.0,30.33,WSW,248,2.7,4.0,1,0.00,,,0.03,WUHU216HW,2013-03-02 22:10:00,
2013-03-02 16:15:00,50.6,-4.0,30.33,SSW,203,2.5,5.8,1,0.00,,,0.03,WUHU216HW,2013-03-02 22:15:00,
2013-03-02 16:20:00,50.4,-4.2,30.33,SSW,203,2.5,5.8,1,0.00,,,0.03,WUHU216HW,2013-03-02 22:20:00,
2013-03-02 16:25:00,50.6,-4.0,30.33,West,270,2.5,2.5,1,0.00,,,0.03,WUHU216HW,2013-03-02 22:25:00,
2013-03-02 16:30:00,50.4,-4.2,30.33,SSW,203,2.0,5.4,1,0.00,,,0.03,WUHU216HW,2013-03-02 22:30:00,
2013-03-02 16:35:00,50.2,-4.3,30.33,West,270,1.8,5.4,1,0.00,,,0.03,WUHU216HW,2013-03-02 22:35:00,
2013-03-02 16:40:00,50.4,-4.2,30.33,SSW,203,2.7,2.7,1,0.00,,,0.03,WUHU216HW,2013-03-02 22:40:00,
2013-03-02 16:45:00,50.4,-4.2,30.33,SSW,203,1.8,4.3,1,0.00,,,0.03,WUHU216HW,2013-03-02 22:45:00,
2013-03-02 16:50:00,50.4,-4.2,30.33,SW,225,4.0,4.3,1,0.00,,,0.03,WUHU216HW,2013-03-02 22:50:00,
2013-03-02 16:55:00,50.4,-4.2,30.33,SW,225,1.8,4.0,1,0.00,,,0.03,WUHU216HW,2013-03-02 22:55:00,
2013-03-02 17:00:00,50.2,-4.3,30.33,West,270,2.9,4.3,1,0.00,,,0.03,WUHU216HW,2013-03-02 23:00:00,
2013-03-02 17:05:00,50.0,-4.5,30.33,SSW,203,2.7,4.3,1,0.00,,,0.03,WUHU216HW,2013-03-02 23:05:00,
2013-03-02 17:10:00,50.4,-4.2,30.33,West,270,3.4,3.4,1,0.00,,,0.03,WUHU216HW,2013-03-02 23:10:00,
2013-03-02 17:15:00,50.2,-4.3,30.33,SW,225,2.0,3.6,1,0.00,,,0.03,WUHU216HW,2013-03-02 23:15:00,
2013-03-02 17:20:00,50.4,-4.2,30.33,SSW,203,1.3,4.0,1,0.00,,,0.03,WUHU216HW,2013-03-02 23:20:00,
2013-03-02 17:25:00,50.6,-4.0,30.33,SSE,158,4.0,4.0,1,0.00,,,0.03,WUHU216HW,2013-03-02 23:25:00,
2013-03-02 17:30:00,50.8,-4.0,30.33,SW,225,0.9,4.0,1,0.00,,,0.03,WUHU216HW,2013-03-02 23:30:00,
2013-03-02 17:35:00,50.8,-4.0,30.33,SW,225,1.8,4.0,1,0.00,,,0.03,WUHU216HW,2013-03-02 23:35:00,
2013-03-02 17:40:00,50.8,-4.0,30.33,SSW,203,2.0,3.4,1,0.00,,,0.03,WUHU216HW,2013-03-02 23:40:00,
2013-03-02 17:45:00,51.8,-3.1,30.33,SW,225,4.0,4.0,1,0.00,,,0.03,WUHU216HW,2013-03-02 23:45:00,
2013-03-02 17:50:00,51.7,-3.2,30.33,SW,225,1.1,4.0,1,0.00,,,0.03,WUHU216HW,2013-03-02 23:50:00,
2013-03-02 17:55:00,51.8,-3.1,30.33,SSW,203,2.7,3.1,1,0.00,,,0.03,WUHU216HW,2013-03-02 23:55:00,
2013-03-02 18:00:00,52.2,-2.8,30.33,SSW,203,0.7,3.1,1,0.00,,,0.03,WUHU216HW,2013-03-03 00:00:00,
2013-03-02 18:05:00,52.6,-2.5,30.33,SSW,203,0.0,3.1,1,0.00,,,0.03,WUHU216HW,2013-03-03 00:05:00,
2013-03-02 18:10:00,52.9,-2.1,30.33,South,180,0.7,3.1,1,0.00,,,0.03,WUHU216HW,2013-03-03 00:10:00,
2013-03-02 18:15:00,52.9,-2.1,30.32,SW,225,0.7,3.1,1,0.00,,,0.03,WUHU216HW,2013-03-03 00:15:00,
2013-03-02 18:20:00,54.2,-1.2,30.32,South,180,0.2,1.3,1,0.00,,,0.03,WUHU216HW,2013-03-03 00:20:00,
2013-03-02 18:25:00,54.4,-1.1,30.32,SSW,203,0.7,1.3,1,0.00,,,0.03,WUHU216HW,2013-03-03 00:25:00,
2013-03-02 18:30:00,55.3,-0.4,30.33,SW,225,1.6,1.6,1,0.00,,,0.03,WUHU216HW,2013-03-03 00:30:00,
2013-03-02 18:35:00,56.2,0.4,30.32,South,180,0.7,1.6,1,0.00,,,0.03,WUHU216HW,2013-03-03 00:35:00,
2013-03-02 18:40:00,56.5,0.5,30.32,SSE,158,1.8,1.8,1,0.00,,,0.03,WUHU216HW,2013-03-03 00:40:00,
2013-03-02 18:45:00,57.8,1.5,30.32,South,180,0.0,2.0,1,0.00,,,0.03,WUHU216HW,2013-03-03 00:45:00,
2013-03-02 18:50:00,58.1,1.8,30.32,SW,225,0.4,2.0,1,0.00,,,0.03,WUHU216HW,2013-03-03 00:50:00,
2013-03-02 18:55:00,59.2,2.7,30.32,SW,225,0.4,0.7,1,0.00,,,0.03,WUHU216HW,2013-03-03 00:55:00,
2013-03-02 19:00:00,60.1,3.4,30.32,SW,225,1.1,1.1,1,0.00,,,0.03,WUHU216HW,2013-03-03 01:00:00,
2013-03-02 19:05:00,60.5,3.7,30.32,SSW,203,2.0,2.0,1,0.00,,,0.03,WUHU216HW,2013-03-03 01:05:00,
2013-03-02 19:10:00,61.4,4.4,30.33,SW,225,4.0,4.0,1,0.00,,,0.03,WUHU216HW,2013-03-03 01:10:00,
2013-03-02 19:15:00,61.4,4.4,30.33,South,180,2.2,4.0,1,0.00,,,0.03,WUHU216HW,2013-03-03 01:15:00,
2013-03-02 19:20:00,62.3,5.1,30.32,SSE,158,1.8,4.0,1,0.00,,,0.03,WUHU216HW,2013-03-03 01:20:00,
2013-03-02 19:25:00,62.6,5.4,30.32,SW,225,0.4,2.7,1,0.00,,,0.03,WUHU216HW,2013-03-03 01:25:00,
2013-03-02 19:30:00,63.4,6.0,30.31,SSE,158,2.2,2.2,1,0.00,,,0.03,WUHU216HW,2013-03-03 01:30:00,
2013-03-02 19:35:00,63.5,6.0,30.31,SSE,158,1.8,2.2,1,0.00,,,0.03,WUHU216HW,2013-03-03 01:35:00,
2013-03-02 19:40:00,65.0,7.1,30.30,South,180,0.9,1.8,1,0.00,,,0.03,WUHU216HW,2013-03-03 01:40:00,
2013-03-02 19:45:00,65.7,7.7,30.30,SW,225,1.1,1.8,1,0.00,,,0.03,WUHU216HW,2013-03-03 01:45:00,
2013-03-02 19:50:00,66.8,8.6,30.30,SSE,158,0.7,1.1,1,0.00,,,0.03,WUHU216HW,2013-03-03 01:50:00,
2013-03-02 19:55:00,66.8,8.6,30.30,SE,135,1.3,1.3,1,0.00,,,0.03,WUHU216HW,2013-03-03 01:55:00,
2013-03-02 20:00:00,66.8,8.6,30.30,SE,135,1.3,1.3,1,0.00,,,0.03,WUHU216HW,2013-03-03 02:00:00,
2013-03-02 20:05:00,69.3,10.5,30.30,SW,225,1.1,1.3,1,0.00,,,0.03,WUHU216HW,2013-03-03 02:05:00,
2013-03-02 20:10:00,70.0,11.0,30.30,WSW,248,2.5,2.5,1,0.00,,,0.03,WUHU216HW,2013-03-03 02:10:00,
2013-03-02 20:15:00,70.7,11.5,30.30,SW,225,0.9,2.5,1,0.00,,,0.03,WUHU216HW,2013-03-03 02:15:00,
2013-03-02 20:20:00,70.7,11.5,30.30,SW,225,0.9,2.5,1,0.00,,,0.03,WUHU216HW,2013-03-03 02:20:00,
2013-03-02 20:25:00,72.7,13.2,30.29,SW,225,0.4,0.9,1,0.00,,,0.03,WUHU216HW,2013-03-03 02:25:00,
2013-03-02 20:30:00,74.2,-18.7,30.29,SE,135,0.0,0.7,1,0.00,,,0.03,WUHU216HW,2013-03-03 02:30:00,
2013-03-02 20:35:00,75.1,-18.1,30.29,SE,135,0.0,0.7,1,0.00,,,0.03,WUHU216HW,2013-03-03 02:35:00,
2013-03-02 20:40:00,76.0,75.7,30.29,SW,225,1.1,1.1,99,0.00,,,0.03,WUHU216HW,2013-03-03 02:40:00,
2013-03-02 20:45:00,76.5,76.2,30.29,SW,225,0.0,1.1,99,0.00,,,0.03,WUHU216HW,2013-03-03 02:45:00,
2013-03-02 20:50:00,77.6,77.3,30.29,South,180,0.4,3.1,99,0.00,,,0.03,WUHU216HW,2013-03-03 02:50:00,
2013-03-02 20:55:00,78.3,78.0,30.29,South,180,0.4,3.1,99,0.00,,,0.03,WUHU216HW,2013-03-03 02:55:00,
2013-03-02 21:00:00,79.0,78.8,30.29,SSE,158,2.5,2.5,99,0.00,,,0.03,WUHU216HW,2013-03-03 03:00:00,
2013-03-02 21:05:00,79.9,79.6,30.29,SW,225,0.7,2.5,99,0.00,,,0.03,WUHU216HW,2013-03-03 03:05:00,
2013-03-02 21:10:00,80.6,80.3,30.29,South,180,0.9,2.5,99,0.00,,,0.03,WUHU216HW,2013-03-03 03:10:00,
2013-03-02 21:15:00,81.5,81.2,30.29,SSE,158,1.6,1.6,99,0.00,,,0.03,WUHU216HW,2013-03-03 03:15:00,
2013-03-02 21:20:00,82.6,82.3,30.29,SSE,158,1.6,1.6,99,0.00,,,0.03,WUHU216HW,2013-03-03 03:20:00,
2013-03-02 21:25:00,83.9,83.5,30.29,South,180,2.5,2.5,99,0.00,,,0.03,WUHU216HW,2013-03-03 03:25:00,
2013-03-02 21:30:00,84.2,83.9,30.29,SSE,158,1.1,2.5,99,0.00,,,0.03,WUHU216HW,2013-03-03 03:30:00,
2013-03-02 21:35:00,85.0,84.6,30.30,South,180,0.9,2.5,99,0.00,,,0.03,WUHU216HW,2013-03-03 03:35:00,
2013-03-02 21:40:00,86.0,85.7,30.30,South,180,0.4,2.0,99,0.00,,,0.03,WUHU216HW,2013-03-03 03:40:00,
2013-03-02 21:45:00,86.2,85.9,30.30,SSW,203,0.7,1.1,99,0.00,,,0.03,WUHU216HW,2013-03-03 03:45:00,
2013-03-02 21:50:00,87.5,87.1,30.29,SSW,203,1.1,4.0,99,0.00,,,0.03,WUHU216HW,2013-03-03 03:50:00,
2013-03-02 21:55:00,88.4,88.0,30.29,South,180,1.1,4.0,99,0.00,,,0.03,WUHU216HW,2013-03-03 03:55:00,
2013-03-02 22:00:00,88.9,88.6,30.29,SW,225,1.8,1.8,99,0.00,,,0.03,WUHU216HW,2013-03-03 04:00:00,
2013-03-02 22:05:00,89.8,89.5,30.29,SSW,203,0.4,3.8,99,0.00,,,0.03,WUHU216HW,2013-03-03 04:05:00,
2013-03-02 22:10:00,90.4,90.0,30.29,South,180,2.2,3.8,99,0.00,,,0.03,WUHU216HW,2013-03-03 04:10:00,
2013-03-02 22:15:00,90.7,90.4,30.28,South,180,2.0,4.0,99,0.00,,,0.03,WUHU216HW,2013-03-03 04:15:00,
2013-03-02 22:20:00,91.6,91.3,30.28,SW,225,1.3,4.0,99,0.00,,,0.03,WUHU216HW,2013-03-03 04:20:00,
2013-03-02 22:25:00,92.3,92.0,30.28,SW,225,0.9,2.5,99,0.00,,,0.03,WUHU216HW,2013-03-03 04:25:00,
2013-03-02 22:30:00,92.5,92.2,30.28,SW,225,2.7,2.7,99,0.00,,,0.03,WUHU216HW,2013-03-03 04:30:00,
2013-03-02 22:35:00,94.0,93.6,30.28,SW,225,0.4,2.7,99,0.00,,,0.03,WUHU216HW,2013-03-03 04:35:00,
2013-03-02 22:40:00,94.0,93.6,30.28,SW,225,2.9,2.9,99,0.00,,,0.03,WUHU216HW,2013-03-03 04:40:00,
2013-03-02 22:45:00,94.1,93.8,30.28,SSE,158,0.0,2.9,99,0.00,,,0.03,WUHU216HW,2013-03-03 04:45:00,
2013-03-02 22:50:00,94.7,94.3,30.28,SSW,203,0.2,1.8,99,0.00,,,0.03,WUHU216HW,2013-03-03 04:50:00,
2013-03-02 22:54:00,95.8,95.4,30.27,SSW,203,0.4,0.4,99,0.00,,,0.03,WUHU216HW,2013-03-03 04:54:00,
2013-03-02 22:55:00,95.8,95.4,30.27,SSW,203,0.4,1.3,99,0.00,,,0.03,WUHU216HW,2013-03-03 04:55:00,
2013-03-02 23:00:00,95.8,95.4,30.27,SSW,203,0.4,1.3,99,0.00,,,0.03,WUHU216HW,2013-03-03 05:00:00,